Weather History for KAPC - March, 2013

Change the Weather History Date:

Thursday, March 21, 2013

  Actual Average Record
Temperature  
Mean Temperature 50 °F 52 °F  
Max Temperature 65 °F 65 °F 76 °F (2000)
Min Temperature 35 °F 40 °F 31 °F (2008)
Degree Days  
Heating Degree Days 15    
Month to date heating degree days 261  
Since 1 July heating degree days 2466  
Cooling Degree Days 0    
Month to date cooling degree days 0  
Year to date cooling degree days 0  
Moisture  
Dew Point 42 °F    
Average Humidity 73    
Maximum Humidity 93    
Minimum Humidity 52    
Precipitation  
Precipitation 0.00 in - 1.44 in (1937)
Month to date precipitation 0.15  
Year to date precipitation 0.77  
Since 1 July precipitation 8.56  
Sea Level Pressure  
Sea Level Pressure 30.08 in    
Wind  
Wind Speed 5 mph (WSW)    
Max Wind Speed 17 mph    
Max Gust Speed 33 mph    
Visibility 9 miles    
Events      
T = Trace of Precipitation, MM = Missing Value Source: NWS Daily Summary

Daily Weather History Graph

Daily Weather History Graph

Search for Another Location

Airport or City:

Trip Planner

Search our weather history database for the weather conditions in past years. The results will help you decide how hot, cold, wet, or windy it might be!

Date:

Astronomy

Mar. 21, 2013 Rise Set
Actual Time 7:10 AM PDT 7:22 PM PDT
Civil Twilight 6:44 AM PDT 7:48 PM PDT
Nautical Twilight 6:13 AM PDT 8:19 PM PDT
Astronomical Twilight 5:42 AM PDT 8:50 PM PDT
Moon 2:01 PM PDT (3/21) 3:31 AM PDT (3/21)
Length of Visible Light 13h 04m
Length of Day
12h 11m
Waxing Gibbous, 69% of the Moon is Illuminated
Mar 21
Waxing Gibbous
Mar 27
Full
Apr 2
Last Quarter
Apr 10
New
Apr 18
First Quarter

Hourly Weather History & Observations

Time (PDT) Temp. Windchill Dew Point Humidity Pressure Visibility Wind Dir Wind Speed Gust Speed Precip Events Conditions
12:54 AM 48.9 °F - 45.0 °F 86% 30.09 in 10.0 mi West 10.4 mph - N/A   Clear
1:54 AM 46.9 °F - 44.1 °F 90% 30.09 in 10.0 mi WSW 11.5 mph - N/A   Clear
2:43 AM 48.2 °F - 44.6 °F 87% 30.12 in 10.0 mi West 9.2 mph - N/A   Mostly Cloudy
2:54 AM 46.9 °F - 44.1 °F 90% 30.09 in 10.0 mi West 10.4 mph - N/A   Mostly Cloudy
3:06 AM 46.4 °F 42.4 °F 44.6 °F 93% 30.12 in 10.0 mi WSW 8.1 mph - N/A   Scattered Clouds
3:54 AM 44.1 °F 40.1 °F 41.0 °F 89% 30.09 in 10.0 mi West 6.9 mph - N/A   Clear
4:39 AM 44.6 °F 40.7 °F 41.0 °F 87% 30.13 in 10.0 mi WNW 6.9 mph - N/A   Mostly Cloudy
4:54 AM 43.0 °F - 39.9 °F 89% 30.10 in 10.0 mi Calm Calm - N/A   Overcast
5:36 AM 39.2 °F - 37.4 °F 93% 30.10 in 10.0 mi Calm Calm - N/A   Scattered Clouds
5:54 AM 39.9 °F - 37.0 °F 89% 30.08 in 10.0 mi Calm Calm - N/A   Clear
6:54 AM 37.0 °F 34.5 °F 36.0 °F 96% 30.09 in 6.0 mi West 3.5 mph - N/A   Clear
6:58 AM 35.6 °F - 33.8 °F 93% 30.12 in 2.5 mi Calm Calm - N/A   Partly Cloudy
7:06 AM 37.4 °F - 35.6 °F 93% 30.13 in 1.2 mi Calm Calm - N/A   Partly Cloudy
7:11 AM 37.4 °F - 35.6 °F 93% 30.13 in 3.0 mi Calm Calm - N/A   Partly Cloudy
7:26 AM 37.4 °F - 37.4 °F 100% 30.12 in 5.0 mi Calm Calm - N/A   Mostly Cloudy
7:43 AM 37.4 °F 34.9 °F 35.6 °F 93% 30.12 in 8.0 mi SE 3.5 mph - N/A   Scattered Clouds
7:54 AM 39.0 °F - 37.9 °F 96% 30.10 in 10.0 mi Calm Calm - N/A   Partly Cloudy
8:54 AM 46.9 °F - 42.1 °F 83% 30.11 in 10.0 mi Calm Calm - N/A   Clear
9:54 AM 50.0 °F - 42.1 °F 74% 30.11 in 10.0 mi Calm Calm - N/A   Clear
10:54 AM 53.1 °F - 44.1 °F 71% 30.11 in 10.0 mi WSW 4.6 mph - N/A   Clear
11:54 AM 55.9 °F - 44.1 °F 64% 30.10 in 10.0 mi SW 3.5 mph - N/A   Clear
12:54 PM 59.0 °F - 45.0 °F 60% 30.08 in 10.0 mi SW 8.1 mph - N/A   Clear
1:54 PM 62.1 °F - 46.0 °F 56% 30.06 in 10.0 mi SW 8.1 mph - N/A   Clear
2:54 PM 64.0 °F - 48.0 °F 56% 30.03 in 10.0 mi SW 10.4 mph - N/A   Clear
3:54 PM 64.9 °F - 46.0 °F 50% 30.01 in 10.0 mi Variable 5.8 mph - N/A   Clear
4:54 PM 64.0 °F - 46.0 °F 52% 30.00 in 10.0 mi West 10.4 mph - N/A   Clear
5:54 PM 62.1 °F - 45.0 °F 53% 29.99 in 10.0 mi West 10.4 mph - N/A   Clear
6:54 PM 57.0 °F - 45.0 °F 64% 29.99 in 10.0 mi SSW 6.9 mph - N/A   Clear
7:54 PM 53.1 °F - 44.1 °F 71% 30.00 in 10.0 mi SSW 4.6 mph - N/A   Clear
8:54 PM 48.9 °F - 42.1 °F 77% 30.01 in 10.0 mi SE 5.8 mph - N/A   Clear
9:54 PM 46.0 °F 44.8 °F 39.9 °F 79% 30.03 in 10.0 mi Variable 3.5 mph - N/A   Clear
10:54 PM 46.0 °F 41.4 °F 41.0 °F 83% 30.03 in 10.0 mi South 9.2 mph - N/A   Clear
11:54 PM 42.1 °F - 39.0 °F 89% 30.04 in 10.0 mi Calm Calm - N/A   Clear